sat.trackr.live / text

‹ back to catalog

STARLINK-3107

NORAD 49171 · 2021-082AT

PAYLOAD ACTIVE UNKNOWN

§ Identity

Operator
Country
US
Launch date
2021-09-14
Launch site
AFWTR
Launch vehicle
Mass (kg)
RCS (m²)

Purposes: comms

External: N2YO · Heavens-Above · Gunter

§ Orbital elements

Epoch: 2026-09-19T09:21:20.448864Z

Period
94.92 min
Inclination
69.9941°
Eccentricity
0.0006511
Mean motion
15.17128285 rev/d
Perigee alt
510.0 km
Apogee alt
519.0 km
Semi-major
6,892.7 km
B*
3.9571e-4
RAAN
147.1373°
Arg perigee
272.8642°
Mean anomaly
87.1781°
Rev number
27,662

§ Raw data

STARLINK-31071 49171U 21082AT  26262.38982001  .00007766  00000+0  39571-3 0  99972 49171  69.9941 147.1373 0006511 272.8642  87.1781 15.17128285276627

JSON: /api/v1/satellites/49171 · /tle

For live sub-satellite position, see the globe view (requires WebGL).

§ Visibility from observer

Set your observer location to see the next 7 days of passes ≥ 10°. The values pass through the URL so the page stays shareable.

No JS? Fill the form by hand. The geolocation button needs JavaScript.